EW1134 Oinofyta GR current weather conditions

sailwx.info

Wind from 138 at 1 knots gusting 3

Air temperature 13.9° C
Dewpoint 5.0° C

Last reported at 2020-Jan-25 11:05 UTC.
Time now 2020-Jan-25 11:56 UTC

Location: N 38°19' E 023°39'.
View on Google Maps.

See reports from other nearby stations

  
Tides and Currents Weather Stations Pressure Air Temp Water Temp Dewpoint Dewpoint Depression Visibility Wind Speed Wind Dir Waves Ship Positions
date/time (UTC)wind fromknots sea level pressurealtimeterstation pressurevisibilityair tempwater tempwave heightnotes
2020-Jan-25 11:05 138 1 gusting 3 13.9
2020-Jan-25 11:00 135 1 gusting 3 13.9
2020-Jan-25 10:55 082 1 gusting 4 13.9
2020-Jan-25 10:50 092 1 gusting 4 13.9
2020-Jan-25 10:45 090 0 gusting 4 13.9
2020-Jan-25 10:40 039 1 gusting 4 13.9
2020-Jan-25 10:35 017 1 gusting 4 13.9
2020-Jan-25 10:30 009 0 gusting 4 13.3
2020-Jan-25 10:25 089 0 gusting 2 13.3
2020-Jan-25 10:20 169 0 gusting 2 12.8
2020-Jan-25 10:15 206 0 gusting 3 12.8
2020-Jan-25 10:09 183 0 gusting 3 12.2
2020-Jan-25 10:05 131 0 gusting 3 12.2
2020-Jan-25 10:00 143 0 gusting 3 12.2
2020-Jan-25 09:55 135 0 gusting 2 12.2
2020-Jan-25 09:50 115 0 gusting 2 12.2
2020-Jan-25 09:45 236 12.2
2020-Jan-25 09:40 262 0 gusting 3 11.7
2020-Jan-25 09:35 242 0 gusting 3 11.7
2020-Jan-25 09:30 198 0 gusting 2 11.1
2020-Jan-25 09:25 108 0 gusting 3 11.1
2020-Jan-25 09:20 100 0 gusting 3 10.6
2020-Jan-25 09:15 117 0 gusting 3 10.6
2020-Jan-25 09:10 170 0 gusting 2 10.6
2020-Jan-25 09:05 176 0 gusting 1 10.6
2020-Jan-25 09:00 190 10.0
2020-Jan-25 08:55 063 0 gusting 2 9.4
2020-Jan-25 08:50 088 0 gusting 3 9.4
2020-Jan-25 08:45 103 0 gusting 3 9.4
2020-Jan-25 08:40 116 8.9
2020-Jan-25 08:34 120 8.9
2020-Jan-25 08:30 199 8.3
2020-Jan-25 08:25 237 0 gusting 2 7.8
2020-Jan-25 08:20 232 0 gusting 2 7.2
2020-Jan-25 08:15 217 0 gusting 2 7.2
2020-Jan-25 08:10 170 0 gusting 2 7.2
2020-Jan-25 08:05 156 0 gusting 2 6.7
2020-Jan-25 08:00 184 0 gusting 1 6.1
2020-Jan-25 07:55 215 0 gusting 2 5.6
2020-Jan-25 07:50 234 0 gusting 2 5.6
2020-Jan-25 07:45 280 0 gusting 3 5.6
2020-Jan-25 07:40 279 0 gusting 3 5.0
2020-Jan-25 07:35 239 0 gusting 3 4.4
2020-Jan-25 07:30 241 0 gusting 3 4.4
2020-Jan-25 07:25 255 0 gusting 3 4.4
2020-Jan-25 07:20 267 0 gusting 2 4.4
2020-Jan-25 07:15 310 3.9
2020-Jan-25 07:10 294 0 gusting 1 3.3
2020-Jan-25 07:05 245 2.8
2020-Jan-25 07:00 280 2.8
2020-Jan-25 06:55 283 0 gusting 1 2.2
2020-Jan-25 06:50 258 0 gusting 1 1.7
2020-Jan-25 06:45 295 0 gusting 1 1.7
2020-Jan-25 06:40 314 1.1
2020-Jan-25 06:35 314 0.6
2020-Jan-25 06:30 129 -0.0
2020-Jan-25 06:25 113 0 gusting 1 -0.0
2020-Jan-25 06:20 098 0 gusting 1 -0.6
2020-Jan-25 06:15 095 -0.6
2020-Jan-25 06:10 103 -0.6
2020-Jan-25 06:05 127 0 gusting 1 -0.0
2020-Jan-25 06:00 205 0 gusting 3 0.6
2020-Jan-25 05:55 229 1 gusting 4 0.6
2020-Jan-25 05:50 247 1 gusting 4 0.6
2020-Jan-25 05:45 244 1 gusting 4 0.6
2020-Jan-25 05:40 237 0.6
2020-Jan-25 05:35 270 -0.6
2020-Jan-25 05:30 -0.6
2020-Jan-25 05:25 090 -0.6
2020-Jan-25 05:20 090 -0.6
2020-Jan-25 05:15 101 -0.0
2020-Jan-25 05:10 001 -0.0
2020-Jan-25 05:05 320 0.6
2020-Jan-25 05:00 268 0 gusting 2 0.6
2020-Jan-25 04:55 216 0 gusting 1 0.6
2020-Jan-25 04:50 169 0.6
2020-Jan-25 04:45 251 0.6
2020-Jan-25 04:40 250 0.6
2020-Jan-25 04:35 244 0 gusting 3 0.6
2020-Jan-25 04:30 226 0 gusting 3 0.6
2020-Jan-25 04:25 219 0 gusting 3 0.6
2020-Jan-25 04:20 248 0 gusting 1 -0.0
2020-Jan-25 04:15 314 -0.6
2020-Jan-25 04:10 090 -0.0
2020-Jan-25 04:05 119 -0.0
2020-Jan-25 04:00 158 -0.0
2020-Jan-25 03:55 208 0.6
2020-Jan-25 03:50 235 0.6
2020-Jan-25 03:45 330 0.6
2020-Jan-25 03:40 223 0.6
2020-Jan-25 03:35 228 0 gusting 1 1.1
2020-Jan-25 03:30 190 0.6
2020-Jan-25 03:25 231 0 gusting 3 1.1
2020-Jan-25 03:20 232 1 gusting 3 1.1
2020-Jan-25 03:15 232 0 gusting 3 1.1
2020-Jan-25 03:10 245 1 gusting 3 1.1
2020-Jan-25 03:05 239 0 gusting 3 1.1
2020-Jan-25 03:00 267 0.6
2020-Jan-25 02:55 323 -0.0
2020-Jan-25 02:50 288 0 gusting 1 -0.0
2020-Jan-25 02:45 225 0.6
2020-Jan-25 02:40 218 0.6
2020-Jan-25 02:35 225 0.6
2020-Jan-25 02:30 211 0.6
2020-Jan-25 02:25 236 0.6
2020-Jan-25 02:20 270 0 gusting 1 0.6
2020-Jan-25 02:15 254 -0.0
2020-Jan-25 02:10 238 0.6
2020-Jan-25 02:05 284 -0.6
2020-Jan-25 02:00 340 -0.6
2020-Jan-25 01:55 314 -0.6
2020-Jan-25 01:50 090 -0.6
2020-Jan-25 01:45 100 -0.6
2020-Jan-25 01:40 258 0 gusting 3 0.6
2020-Jan-25 01:35 250 0 gusting 3 1.1
2020-Jan-25 01:30 205 0 gusting 2 1.1
2020-Jan-25 01:25 195 1.1
2020-Jan-25 01:20 241 0 gusting 2 0.6
2020-Jan-25 01:15 238 0 gusting 2 0.6
2020-Jan-25 01:10 238 0 gusting 2 0.6
2020-Jan-25 01:05 247 0 gusting 3 0.6
2020-Jan-25 01:00 236 0 gusting 3 1.1
2020-Jan-25 00:55 236 0 gusting 3 1.1
2020-Jan-25 00:50 225 1.1
2020-Jan-25 00:45 242 1.1
2020-Jan-25 00:40 255 0.6
2020-Jan-25 00:35 235 0.6
2020-Jan-25 00:30 246 0.6
2020-Jan-25 00:25 248 0.6
2020-Jan-25 00:20 217 0.6
2020-Jan-25 00:15 214 0 gusting 1 0.6
2020-Jan-25 00:10 227 0.6
2020-Jan-25 00:05 204 1.1
2020-Jan-25 00:00 211 1.1
2020-Jan-24 23:55 220 1.1
2020-Jan-24 23:50 204 1.1
2020-Jan-24 23:45 322 0.6
2020-Jan-24 23:40 327 0.6
2020-Jan-24 23:35 001 -0.0
2020-Jan-24 23:30 001 0.6
2020-Jan-24 23:25 0.6
2020-Jan-24 23:20 137 1.1
2020-Jan-24 23:15 181 0 gusting 1 1.1
2020-Jan-24 23:10 212 1.7
2020-Jan-24 23:05 215 0 gusting 1 1.1
2020-Jan-24 23:00 225 0 gusting 2 1.7
2020-Jan-24 22:55 225 0 gusting 2 1.7
2020-Jan-24 22:50 225 0 gusting 2 1.7
2020-Jan-24 22:45 237 0 gusting 2 1.7
2020-Jan-24 22:40 236 0 gusting 2 1.7
2020-Jan-24 22:35 226 0 gusting 2 1.7
2020-Jan-24 22:30 234 0 gusting 2 2.2
2020-Jan-24 22:25 229 0 gusting 2 2.2
2020-Jan-24 22:20 232 0 gusting 2 2.2
2020-Jan-24 22:15 250 2.2
2020-Jan-24 22:10 258 2.2
2020-Jan-24 22:05 284 1.7
2020-Jan-24 22:00 296 1.7
2020-Jan-24 21:55 090 1.7
2020-Jan-24 21:50 090 1.7
2020-Jan-24 21:45 100 1.7
2020-Jan-24 21:40 221 2.2
2020-Jan-24 21:35 218 0 gusting 1 2.8
2020-Jan-24 21:30 215 0 gusting 1 2.8
2020-Jan-24 21:25 214 2.2
2020-Jan-24 21:20 302 2.2
2020-Jan-24 21:15 314 2.2
2020-Jan-24 21:10 296 2.2
2020-Jan-24 21:05 244 2.2
2020-Jan-24 21:00 242 0 gusting 2 2.2
2020-Jan-24 20:55 246 0 gusting 2 2.2
2020-Jan-24 20:50 240 2.2
2020-Jan-24 20:45 225 0 gusting 2 2.2
2020-Jan-24 20:40 225 0 gusting 2 2.8
2020-Jan-24 20:35 239 2.8
2020-Jan-24 20:30 270 2.8
2020-Jan-24 20:25 236 0 gusting 1 3.3
2020-Jan-24 20:20 227 0 gusting 2 3.3
2020-Jan-24 20:15 225 1 gusting 2 3.3
2020-Jan-24 20:10 230 0 gusting 2 2.8
2020-Jan-24 20:05 232 0 gusting 2 2.8
2020-Jan-24 20:00 221 0 gusting 3 2.8
2020-Jan-24 19:55 214 1 gusting 3 3.3
2020-Jan-24 19:50 221 1 gusting 3 3.3
2020-Jan-24 19:45 227 1 gusting 3 3.3
2020-Jan-24 19:40 232 1 gusting 3 3.3
2020-Jan-24 19:35 240 1 gusting 3 3.9
2020-Jan-24 19:30 244 0 gusting 2 3.9
2020-Jan-24 19:25 239 0 gusting 2 3.9
2020-Jan-24 19:20 223 0 gusting 2 3.9
2020-Jan-24 19:15 231 0 gusting 2 3.9
2020-Jan-24 19:10 277 3.9
2020-Jan-24 19:05 263 0 gusting 1 4.4
2020-Jan-24 19:00 240 0 gusting 1 4.4
2020-Jan-24 18:55 233 0 gusting 1 4.4
2020-Jan-24 18:50 230 0 gusting 1 4.4
2020-Jan-24 18:45 225 4.4
2020-Jan-24 18:40 222 0 gusting 1 5.0
2020-Jan-24 18:35 218 0 gusting 1 5.0
2020-Jan-24 18:30 216 5.0
2020-Jan-24 18:25 225 4.4
2020-Jan-24 18:20 238 5.0
2020-Jan-24 18:15 238 5.0
2020-Jan-24 18:10 230 5.0
2020-Jan-24 18:05 223 5.6
2020-Jan-24 18:00 174 0 gusting 1 5.6
2020-Jan-24 17:55 135 5.6
2020-Jan-24 17:50 279 5.6
2020-Jan-24 17:45 263 5.6
2020-Jan-24 17:40 244 5.6
2020-Jan-24 17:35 230 6.1
2020-Jan-24 17:30 228 6.1
2020-Jan-24 17:25 249 0 gusting 3 6.1
2020-Jan-24 17:20 248 1 gusting 3 6.1
2020-Jan-24 17:15 229 1 gusting 3 6.1
2020-Jan-24 17:10 221 1 gusting 3 6.1
2020-Jan-24 17:05 223 2 gusting 3 6.1
2020-Jan-24 17:00 222 1 gusting 3 6.1
2020-Jan-24 16:55 222 1 gusting 3 6.1
2020-Jan-24 16:50 222 1 gusting 3 6.7
2020-Jan-24 16:45 222 1 gusting 3 6.7
2020-Jan-24 16:40 225 1 gusting 3 6.7
2020-Jan-24 16:35 225 1 gusting 3 7.2
2020-Jan-24 16:30 209 0 gusting 3 7.8
2020-Jan-24 16:25 163 7.8
2020-Jan-24 16:20 133 8.3
2020-Jan-24 16:15 102 0 gusting 1 8.3
2020-Jan-24 16:10 095 0 gusting 2 8.3
2020-Jan-24 16:05 090 0 gusting 3 8.3
2020-Jan-24 16:00 092 0 gusting 3 8.3
2020-Jan-24 15:55 100 0 gusting 3 8.9
2020-Jan-24 15:50 098 0 gusting 3 8.9
2020-Jan-24 15:45 088 0 gusting 3 8.9
2020-Jan-24 15:40 083 0 gusting 3 9.4
2020-Jan-24 15:35 083 0 gusting 3 9.4
2020-Jan-24 15:30 084 1 gusting 3 9.4
2020-Jan-24 15:25 077 1 gusting 3 9.4
2020-Jan-24 15:20 077 1 gusting 3 10.0
2020-Jan-24 15:15 083 1 gusting 4 10.0
2020-Jan-24 15:10 081 1 gusting 6 10.0
2020-Jan-24 15:05 072 2 gusting 6 10.0
2020-Jan-24 15:00 071 2 gusting 6 10.0
2020-Jan-24 14:55 077 2 gusting 6 10.6
2020-Jan-24 14:50 078 2 gusting 6 10.6
2020-Jan-24 14:45 074 2 gusting 6 10.6
2020-Jan-24 14:40 068 2 gusting 6 10.6
2020-Jan-24 14:35 064 2 gusting 6 10.6
2020-Jan-24 14:30 067 3 gusting 6 10.6
2020-Jan-24 14:25 082 3 gusting 6 10.6
2020-Jan-24 14:20 096 3 gusting 6 11.1
2020-Jan-24 14:15 090 3 gusting 6 11.1
2020-Jan-24 14:10 083 3 gusting 6 11.1
2020-Jan-24 14:05 090 3 gusting 8 11.1
2020-Jan-24 14:00 088 3 gusting 8 11.1
2020-Jan-24 13:55 077 3 gusting 7 11.1
2020-Jan-24 13:50 071 4 gusting 8 11.1
2020-Jan-24 13:45 053 4 gusting 8 11.1
2020-Jan-24 13:40 048 4 gusting 8 11.1
2020-Jan-24 13:35 065 4 gusting 8 11.1
2020-Jan-24 13:30 068 4 gusting 8 11.7
2020-Jan-24 13:25 074 4 gusting 9 11.7
2020-Jan-24 13:20 086 4 gusting 9 11.1
2020-Jan-24 13:15 071 4 gusting 8 11.1
2020-Jan-24 13:10 048 4 gusting 8 11.7
2020-Jan-24 13:05 063 3 gusting 8 11.7
2020-Jan-24 13:00 065 3 gusting 8 11.7
2020-Jan-24 12:55 060 4 gusting 9 11.7
2020-Jan-24 12:50 070 5 gusting 9 11.7
2020-Jan-24 12:45 079 4 gusting 9 11.7
2020-Jan-24 12:40 073 2 gusting 6 11.7
2020-Jan-24 12:35 036 2 gusting 6 11.7
2020-Jan-24 12:30 043 2 gusting 6 11.7
2020-Jan-24 12:25 087 2 gusting 6 11.7
2020-Jan-24 12:20 092 2 gusting 6 11.7
2020-Jan-24 12:15 055 2 gusting 6 11.7
2020-Jan-24 12:10 040 1 gusting 6 11.7
2020-Jan-24 12:05 098 1 gusting 4 11.7
2020-Jan-24 12:00 105 2 gusting 6 11.1
2020-Jan-24 11:55 099 2 gusting 6 11.7
2020-Jan-24 11:50 098 2 gusting 6 11.7
2020-Jan-24 11:45 108 1 gusting 5 11.7
2020-Jan-24 11:40 110 2 gusting 5 11.7
2020-Jan-24 11:35 098 1 gusting 5 11.7
2020-Jan-24 11:30 112 1 gusting 5 11.7
2020-Jan-24 11:25 116 1 gusting 5 11.7
2020-Jan-24 11:20 129 1 gusting 5 11.7
2020-Jan-24 11:15 162 1 gusting 4 11.1
2020-Jan-24 11:10 174 1 gusting 4 11.1
2020-Jan-24 11:05 193 1 gusting 4 11.1
2020-Jan-24 11:00 192 1 gusting 4 11.1
2020-Jan-24 10:55 168 1 gusting 4 11.1
2020-Jan-24 10:50 146 1 gusting 5 11.1
2020-Jan-24 10:45 162 1 gusting 5 11.1
2020-Jan-24 10:40 161 1 gusting 4 11.1
2020-Jan-24 10:35 080 1 gusting 6 11.1
2020-Jan-24 10:30 073 1 gusting 6 11.1
2020-Jan-24 10:25 119 1 gusting 4 10.6
2020-Jan-24 10:20 130 1 gusting 3 10.6
2020-Jan-24 10:15 156 1 gusting 3 10.6
2020-Jan-24 10:10 061 2 gusting 5 10.6
2020-Jan-24 10:05 039 2 gusting 5 10.6
2020-Jan-24 10:00 049 1 gusting 5 10.6
2020-Jan-24 09:55 233 0 gusting 3 10.6
2020-Jan-24 09:50 240 0 gusting 2 10.6
2020-Jan-24 09:45 165 0 gusting 5 10.6
2020-Jan-24 09:40 137 2 gusting 6 10.0
2020-Jan-24 09:35 139 2 gusting 6 10.0
2020-Jan-24 09:30 130 2 gusting 5 10.0
2020-Jan-24 09:25 123 1 gusting 5 10.0
2020-Jan-24 09:20 116 1 gusting 4 9.4
2020-Jan-24 09:15 121 1 gusting 5 10.0
2020-Jan-24 09:10 103 0 gusting 5 10.0
2020-Jan-24 09:05 020 0 gusting 3 10.0
2020-Jan-24 09:00 125 0 gusting 2 10.0
2020-Jan-24 08:55 129 0 gusting 2 9.4
2020-Jan-24 08:50 106 9.4
2020-Jan-24 08:45 245 0 gusting 2 9.4
2020-Jan-24 08:40 230 0 gusting 2 8.9
2020-Jan-24 08:35 227 0 gusting 3 8.9
2020-Jan-24 08:30 257 1 gusting 3 8.3
2020-Jan-24 08:25 244 1 gusting 3 8.3
2020-Jan-24 08:20 236 1 gusting 3 8.3
2020-Jan-24 08:15 252 0 gusting 3 7.8
2020-Jan-24 08:10 256 0 gusting 3 7.8
2020-Jan-24 08:05 238 1 gusting 3 7.2
2020-Jan-24 08:00 226 1 gusting 3 6.7
2020-Jan-24 07:55 240 0 gusting 3 6.7
2020-Jan-24 07:50 268 0 gusting 3 6.1
2020-Jan-24 07:45 253 1 gusting 5 6.1
2020-Jan-24 07:40 246 2 gusting 6 5.6
2020-Jan-24 07:35 273 2 gusting 6 5.6
2020-Jan-24 07:30 289 2 gusting 6 5.0
2020-Jan-24 07:25 258 1 gusting 3 5.0
2020-Jan-24 07:20 254 0 gusting 3 4.4
2020-Jan-24 07:15 269 0 gusting 3 3.9
2020-Jan-24 07:10 269 0 gusting 3 3.9
2020-Jan-24 07:05 268 0 gusting 2 3.3
2020-Jan-24 07:00 264 0 gusting 2 2.8
2020-Jan-24 06:55 246 0 gusting 2 2.8
2020-Jan-24 06:50 238 2.8
2020-Jan-24 06:45 253 2.8
2020-Jan-24 06:40 242 0 gusting 2 2.2
2020-Jan-24 06:35 246 2.2
2020-Jan-24 06:30 267 2.2
2020-Jan-24 06:25 238 2.2
2020-Jan-24 06:20 213 1.7
2020-Jan-24 06:15 216 1.7
2020-Jan-24 06:10 237 1.7
2020-Jan-24 06:05 258 0 gusting 3 1.7
2020-Jan-24 06:00 246 1 gusting 3 1.1
2020-Jan-24 05:55 225 1 gusting 6 1.1
2020-Jan-24 05:50 230 1 gusting 6 1.7
2020-Jan-24 05:45 228 1 gusting 6 1.7
2020-Jan-24 05:40 241 1 gusting 4 2.2
2020-Jan-24 05:35 271 1 gusting 5 1.7
2020-Jan-24 05:30 266 2 gusting 5 2.2
2020-Jan-24 05:25 255 2 gusting 6 2.2
2020-Jan-24 05:20 272 2 gusting 6 1.7
2020-Jan-24 05:15 270 2 gusting 6 1.7
2020-Jan-24 05:10 250 1 gusting 4 1.7
2020-Jan-24 05:05 237 1 gusting 3 1.7
2020-Jan-24 05:00 246 1 gusting 5 1.7
2020-Jan-24 04:55 254 2 gusting 5 1.7
2020-Jan-24 04:50 259 2 gusting 6 1.7
2020-Jan-24 04:45 263 2 gusting 6 1.7
2020-Jan-24 04:40 253 2 gusting 6 1.7
2020-Jan-24 04:35 253 2 gusting 6 2.2
2020-Jan-24 04:30 253 1 gusting 6 2.2
2020-Jan-24 04:25 249 1 gusting 4 2.2
2020-Jan-24 04:20 242 1 gusting 4 2.2
2020-Jan-24 04:15 258 0 gusting 3 2.2
2020-Jan-24 04:10 262 0 gusting 4 2.2
2020-Jan-24 04:05 223 1 gusting 4 2.2
2020-Jan-24 04:00 227 1 gusting 5 2.2
2020-Jan-24 03:55 244 1 gusting 6 2.2
2020-Jan-24 03:50 255 1 gusting 6 2.2
2020-Jan-24 03:45 258 2 gusting 6 2.2
2020-Jan-24 03:40 246 2 gusting 5 2.2
2020-Jan-24 03:35 231 2 gusting 6 2.2
2020-Jan-24 03:30 225 2 gusting 6 2.2
2020-Jan-24 03:25 249 2 gusting 5 2.2
2020-Jan-24 03:20 268 2 gusting 5 2.8
2020-Jan-24 03:15 270 2 gusting 6 2.8
2020-Jan-24 03:10 257 2 gusting 6 2.2
2020-Jan-24 03:05 254 3 gusting 6 2.2
2020-Jan-24 03:00 243 3 gusting 6 2.2
2020-Jan-24 02:55 235 3 gusting 6 2.8
2020-Jan-24 02:50 234 2 gusting 5 2.8
2020-Jan-24 02:45 232 2 gusting 3 2.8
2020-Jan-24 02:40 251 1 gusting 3 2.8
2020-Jan-24 02:35 241 2 gusting 5 2.8
2020-Jan-24 02:30 238 2 gusting 5 2.8
2020-Jan-24 02:25 236 2 gusting 5 2.8
2020-Jan-24 02:20 225 2 gusting 5 2.8
2020-Jan-24 02:15 231 1 gusting 3 2.8
2020-Jan-24 02:10 238 0 gusting 3 2.8
2020-Jan-24 02:05 243 1 gusting 5 2.8
2020-Jan-24 02:00 231 3 gusting 5 2.8
2020-Jan-24 01:55 225 2 gusting 5 2.8
2020-Jan-24 01:50 237 1 gusting 4 3.3
2020-Jan-24 01:45 226 1 gusting 4 3.3
2020-Jan-24 01:40 224 3 gusting 6 3.3
2020-Jan-24 01:35 227 3 gusting 6 3.9
2020-Jan-24 01:30 226 1 gusting 6 3.9
2020-Jan-24 01:25 241 0 gusting 3 3.9
2020-Jan-24 01:20 226 3.9
2020-Jan-24 01:15 127 3.9
2020-Jan-24 01:10 060 3.9
2020-Jan-24 01:05 287 0 gusting 3 3.9
2020-Jan-24 01:00 248 1 gusting 4 3.9
2020-Jan-24 00:55 234 2 gusting 6 3.9
2020-Jan-24 00:50 225 3 gusting 6 3.9
2020-Jan-24 00:45 229 2 gusting 6 3.9
2020-Jan-24 00:40 229 1 gusting 4 3.9
2020-Jan-24 00:35 225 2 gusting 4 3.9
2020-Jan-24 00:30 222 1 gusting 4 3.9
2020-Jan-24 00:25 232 1 gusting 4 3.9
2020-Jan-24 00:20 229 2 gusting 6 3.9
2020-Jan-24 00:15 225 2 gusting 6 3.9
2020-Jan-24 00:10 231 2 gusting 5 3.9
2020-Jan-24 00:05 223 2 gusting 5 3.3
2020-Jan-24 00:00 223 3 gusting 5 3.3
2020-Jan-23 23:55 225 2 gusting 4 3.3
2020-Jan-23 23:50 225 2 gusting 6 3.3
2020-Jan-23 23:45 228 3 gusting 6 3.3
2020-Jan-23 23:40 229 3 gusting 6 3.3
2020-Jan-23 23:35 227 2 gusting 6 3.3
2020-Jan-23 23:30 228 2 gusting 6 3.3
2020-Jan-23 23:25 243 1 gusting 3 3.9
2020-Jan-23 23:20 262 1 gusting 3 3.9
2020-Jan-23 23:15 250 1 gusting 4 3.3
2020-Jan-23 23:10 250 1 gusting 4 3.3
2020-Jan-23 23:05 252 1 gusting 4 3.9
2020-Jan-23 23:00 229 1 gusting 4 3.9
2020-Jan-23 22:55 234 1 gusting 4 3.9
2020-Jan-23 22:50 261 1 gusting 6 3.9
2020-Jan-23 22:45 265 2 gusting 6 3.9
2020-Jan-23 22:40 248 3 gusting 6 3.3
2020-Jan-23 22:35 228 3 gusting 6 3.3
2020-Jan-23 22:30 223 3 gusting 6 3.3
2020-Jan-23 22:25 246 3 gusting 9 3.3
2020-Jan-23 22:20 257 4 gusting 9 3.3
2020-Jan-23 22:15 242 4 gusting 7 3.3
2020-Jan-23 22:10 244 3 gusting 7 3.3
2020-Jan-23 22:05 252 0 gusting 6 3.3
2020-Jan-23 22:00 226 0 gusting 6 3.3
2020-Jan-23 21:55 221 1 gusting 6 3.9
2020-Jan-23 21:50 224 2 gusting 5 3.9
2020-Jan-23 21:45 274 2 gusting 6 3.9
2020-Jan-23 21:40 274 3 gusting 6 3.9
2020-Jan-23 21:35 243 3 gusting 6 3.3
2020-Jan-23 21:30 232 3 gusting 6 3.3
2020-Jan-23 21:25 234 3 gusting 6 3.3
2020-Jan-23 21:20 245 2 gusting 6 3.9
2020-Jan-23 21:15 261 2 gusting 6 3.9
2020-Jan-23 21:10 263 2 gusting 6 3.9
2020-Jan-23 21:05 266 2 gusting 6 3.9
2020-Jan-23 21:00 265 2 gusting 6 3.9
2020-Jan-23 20:55 251 3 gusting 6 3.9
2020-Jan-23 20:50 255 3 gusting 6 3.9
2020-Jan-23 20:45 257 3 gusting 6 3.3
2020-Jan-23 20:40 234 3 gusting 6 3.3
2020-Jan-23 20:35 229 2 gusting 6 3.9
2020-Jan-23 20:30 236 2 gusting 4 4.4
2020-Jan-23 20:25 232 2 gusting 4 4.4
2020-Jan-23 20:20 239 1 gusting 4 4.4
2020-Jan-23 20:15 237 1 gusting 4 5.0
2020-Jan-23 20:10 231 1 gusting 3 5.0
2020-Jan-23 20:05 236 1 gusting 3 5.0
2020-Jan-23 20:00 237 0 gusting 3 5.6
2020-Jan-23 19:55 243 0 gusting 5 5.0
2020-Jan-23 19:50 235 1 gusting 5 5.0
2020-Jan-23 19:45 224 2 gusting 6 5.0
2020-Jan-23 19:40 218 3 gusting 6 5.0
2020-Jan-23 19:35 221 4 gusting 6 5.0
2020-Jan-23 19:30 225 2 gusting 6 5.0
2020-Jan-23 19:25 240 0 gusting 4 6.1
2020-Jan-23 19:20 290 6.1
2020-Jan-23 19:15 290 6.7
2020-Jan-23 19:10 271 7.2
2020-Jan-23 19:05 329 6.7
2020-Jan-23 19:00 005 0 gusting 3 6.7
2020-Jan-23 18:55 344 0 gusting 3 6.7
2020-Jan-23 18:50 310 7.2
2020-Jan-23 18:45 265 0 gusting 2 6.7
2020-Jan-23 18:40 244 0 gusting 3 7.2
2020-Jan-23 18:35 257 0 gusting 3 7.2
2020-Jan-23 18:30 236 0 gusting 3 7.2
2020-Jan-23 18:25 224 0 gusting 3 7.2
2020-Jan-23 18:20 217 0 gusting 1 7.8
2020-Jan-23 18:15 231 7.8
2020-Jan-23 18:10 204 7.2
2020-Jan-23 18:05 183 7.8
2020-Jan-23 18:00 212 7.8
2020-Jan-23 17:55 229 7.2
2020-Jan-23 17:50 138 7.2
2020-Jan-23 17:45 158 7.8
2020-Jan-23 17:40 187 0 gusting 2 7.8
2020-Jan-23 17:35 191 0 gusting 2 7.8
2020-Jan-23 17:30 196 7.8
2020-Jan-23 17:25 128 7.8
2020-Jan-23 17:20 105 7.8
2020-Jan-23 17:15 108 0 gusting 2 7.8
2020-Jan-23 17:10 113 1 gusting 6 8.3
2020-Jan-23 17:05 094 0 gusting 6 8.3
2020-Jan-23 17:00 062 7.8
2020-Jan-23 16:55 110 7.8
2020-Jan-23 16:50 124 8.3
2020-Jan-23 16:45 106 8.3
2020-Jan-23 16:40 083 8.3
2020-Jan-23 16:35 063 0 gusting 3 8.3
2020-Jan-23 16:30 043 0 gusting 3 8.3
2020-Jan-23 16:25 055 1 gusting 3 8.9
2020-Jan-23 16:20 073 0 gusting 3 8.9
2020-Jan-23 16:15 075 0 gusting 3 8.9
2020-Jan-23 16:10 054 1 gusting 6 9.4
2020-Jan-23 16:05 033 2 gusting 6 9.4
2020-Jan-23 16:00 022 3 gusting 8 9.4
2020-Jan-23 15:55 020 4 gusting 9 9.4
2020-Jan-23 15:50 027 4 gusting 9 9.4
2020-Jan-23 15:45 027 5 gusting 11 10.0
2020-Jan-23 15:40 004 4 gusting 11 10.0
2020-Jan-23 15:35 009 4 gusting 10 10.0
2020-Jan-23 15:30 032 5 gusting 11 10.0
2020-Jan-23 15:25 036 4 gusting 11 10.0
2020-Jan-23 15:20 036 4 gusting 8 10.6
2020-Jan-23 15:15 033 3 gusting 9 10.6
2020-Jan-23 15:10 037 4 gusting 10 10.6
2020-Jan-23 15:05 033 4 gusting 10 10.6
2020-Jan-23 15:00 014 4 gusting 8 11.1
2020-Jan-23 14:55 014 3 gusting 8 11.1
2020-Jan-23 14:50 010 3 gusting 7 11.1
2020-Jan-23 14:45 011 2 gusting 6 11.7
2020-Jan-23 14:40 047 2 gusting 5 11.7
2020-Jan-23 14:35 073 2 gusting 6 11.7
2020-Jan-23 14:30 057 3 gusting 10 11.7
2020-Jan-23 14:25 050 4 gusting 10 11.7
2020-Jan-23 14:20 033 4 gusting 9 12.2
2020-Jan-23 14:15 003 4 gusting 9 12.2
2020-Jan-23 14:10 003 4 gusting 9 12.2
2020-Jan-23 14:05 027 3 gusting 9 12.2
2020-Jan-23 14:00 050 3 gusting 8 12.2
2020-Jan-23 13:55 053 3 gusting 7 12.2
2020-Jan-23 13:50 045 2 gusting 6 12.2
2020-Jan-23 13:45 017 3 gusting 7 12.2
2020-Jan-23 13:40 343 4 gusting 11 12.2
2020-Jan-23 13:35 345 6 gusting 12 12.2
2020-Jan-23 13:30 330 6 gusting 12 12.2
2020-Jan-23 13:25 329 5 gusting 10 12.8
2020-Jan-23 13:20 008 5 gusting 10 12.8
2020-Jan-23 13:15 022 4 gusting 8 12.8
2020-Jan-23 13:10 020 4 gusting 7 13.3
2020-Jan-23 13:05 055 4 gusting 7 12.8
2020-Jan-23 13:00 086 4 gusting 9 12.8
2020-Jan-23 12:55 093 3 gusting 9 12.8
2020-Jan-23 12:50 089 4 gusting 9 13.3
2020-Jan-23 12:45 067 5 gusting 13 13.9
2020-Jan-23 12:40 024 6 gusting 16 13.9
2020-Jan-23 12:35 350 6 gusting 16 13.9
2020-Jan-23 12:30 338 8 gusting 16 13.9
2020-Jan-23 12:25 327 8 gusting 19 13.9
2020-Jan-23 12:20 326 8 gusting 19 14.4
2020-Jan-23 12:15 331 8 gusting 18 14.4
2020-Jan-23 12:10 331 7 gusting 15 14.4
2020-Jan-23 12:05 320 6 gusting 15 15.0
2020-Jan-23 12:00 313 7 gusting 17 14.4
2020-Jan-23 11:55 331 6 gusting 17 15.0
2020-Jan-23 11:50 348 6 gusting 13 15.0
2020-Jan-23 11:45 329 6 gusting 13 15.0
2020-Jan-23 11:40 314 6 gusting 13 15.0
2020-Jan-23 11:35 317 6 gusting 13 15.0
2020-Jan-23 11:30 325 7 gusting 17 15.0